This demonstration page uses our WeatherBlox Daily Observations layout. Learn more.

40.92945, -100.16068

Hourly Observations for October 10, 2019

Temp ( °F °C ) Dew Point ( °F °C ) Humidity (%) Winds ( mph kmh ) Pressure ( in mb ) Visibility ( mi km ) Precip ( " mm )
12:15 am 00:15 Cloudy with Drizzle 43 6.1 42 5.8 98 98 NNE 12 19 29.85 1011 4 6.43736 0.03 0.762
12:35 am 00:35 Cloudy with Rain 43 6.1 42 5.6 97 97 NNE 15 24 29.85 1011 5 8.0467 0.04 1.016
12:55 am 00:55 Cloudy with Light Rain 42 5.8 42 5.3 97 97 NNE 14 22 29.86 1011 4 6.43736 0.06 1.524
1:15 am 01:15 Cloudy with Drizzle 42 5.7 42 5.3 97 97 N 16 26 29.86 1011 4 6.43736 0.01 0.254
1:35 am 01:35 Cloudy with Light Rain 42 5.7 41 5.2 97 97 N 16 26 29.86 1011 7 11.26538 0.01 0.254
1:55 am 01:55 Cloudy with Light Drizzle 42 5.6 41 5 96 96 N 16 26 29.86 1011 7 11.26538 0.01 0.254
2:15 am 02:15 Cloudy with Light Drizzle 42 5.4 40 4.7 95 95 N 16 26 29.88 1012 7 11.26538 0.01 0.254
2:35 am 02:35 Cloudy with Mist and Fog 42 5.3 40 4.6 95 95 N 16 26 29.88 1012 5 8.0467 0.01 0.254
2:55 am 02:55 Cloudy with Mist and Fog 41 5 40 4.3 95 95 N 18 30 29.88 1012 5 8.0467 0.01 0.254
3:15 am 03:15 Cloudy with Light Drizzle 40 4.7 39 4 95 95 N 21 33 29.88 1012 7 11.26538 0 0
3:35 am 03:35 Cloudy with Light Drizzle 40 4.5 39 4 97 97 NNW 15 24 29.88 1012 4 6.43736 0 0
3:55 am 03:55 Cloudy with Light Rain 40 4.3 38 3.6 95 95 N 18 30 29.88 1012 4 6.43736 0 0
4:15 am 04:15 Cloudy with Rain 39 4 38 3.5 97 97 NNW 24 39 29.9 1012 3 4.82802 0 0
4:35 am 04:35 Cloudy with Rain 38 3.6 37 2.9 95 95 N 24 39 29.91 1013 3 4.82802 0 0
4:55 am 04:55 Cloudy with Rain 38 3.2 37 2.8 97 97 N 18 30 29.93 1013 3 4.82802 0.01 0.254
5:15 am 05:15 Cloudy with Light Rain 37 2.7 36 2.2 97 97 N 24 39 29.95 1014 4 6.43736 0 0
5:35 am 05:35 Cloudy with Light Rain 37 2.6 36 2 96 96 NNW 25 41 29.97 1015 4 6.43736 0.01 0.254
5:55 am 05:55 Cloudy with Rain 36 2.2 35 1.6 96 96 N 22 35 29.97 1015 4 6.43736 0.02 0.508
6:15 am 06:15 Cloudy with Drizzle 36 2.2 35 1.4 95 95 N 26 43 29.98 1015 5 8.0467 0 0
6:35 am 06:35 Cloudy with Light Drizzle 36 2 34 1.1 94 94 N 23 37 29.98 1015 5 8.0467 0.01 0.254
6:55 am 06:55 Cloudy with Light Drizzle 35 1.8 34 1 95 95 N 23 37 29.99 1016 7 11.26538 0.01 0.254
7:15 am 07:15 Cloudy with Light Drizzle 35 1.8 34 1 95 95 NNW 21 33 30 1016 10 16.0934 0 0
7:35 am 07:35 Cloudy with Light Drizzle 35 1.7 33 0.5 92 92 N 25 41 30.01 1016 10 16.0934 0 0
7:55 am 07:55 Cloudy with Light Drizzle 35 1.6 33 0.4 92 92 NNW 18 30 30.01 1016 10 16.0934 0 0
8:15 am 08:15 Cloudy 35 1.5 32 0.2 91 91 N 22 35 30.01 1016 10 16.0934 0 0
8:35 am 08:35 Cloudy 35 1.4 32 0 91 91 NNW 21 33 30.03 1017 10 16.0934 0 0
8:55 am 08:55 Cloudy 34 1.3 32 0 91 91 N 20 31 30.04 1017 10 16.0934 0 0
9:15 am 09:15 Cloudy 34 1.2 32 0 92 92 NNW 20 31 30.06 1018 10 16.0934 0 0
9:35 am 09:35 Cloudy 34 1 32 -0.1 92 92 NNW 20 31 30.06 1018 10 16.0934 0 0
9:55 am 09:55 Cloudy 34 1 32 -0.1 92 92 NNW 23 37 30.06 1018 10 16.0934 0 0
10:15 am 10:15 Cloudy 34 1 31 -0.4 90 90 NNW 18 30 30.08 1019 10 16.0934 0 0
10:35 am 10:35 Cloudy 34 1 31 -0.3 91 91 NNW 22 35 30.09 1019 10 16.0934 0 0
10:55 am 10:55 Cloudy 33 0.8 31 -0.8 89 89 NNW 21 33 30.1 1019 10 16.0934 0 0
11:15 am 11:15 Cloudy with Mist and Fog 33 0.8 31 -0.6 90 90 NNW 23 37 30.11 1020 4 6.43736 0 0
11:35 am 11:35 Cloudy with Mist and Fog 33 0.5 31 -0.4 94 94 NNW 25 41 30.12 1020 2.5 4.02335 0 0
11:55 am 11:55 Cloudy with Mist and Fog 32 0.2 31 -0.5 95 95 NNW 21 33 30.13 1020 2.5 4.02335 0 0
12:15 pm 12:15 Cloudy with Mist and Fog 32 0.1 31 -0.7 94 94 NNW 28 44 30.13 1020 3 4.82802 0 0
12:55 pm 12:55 Cloudy 33 0.5 31 -0.6 92 92 NNW 25 41 30.11 1020 7 11.26538 0 0
1:15 pm 13:15 Cloudy with Mist and Fog 32 0.1 30 -1.3 90 90 NNW 29 46 30.11 1020 5 8.0467 0 0
1:35 pm 13:35 Cloudy 33 0.3 29 -1.6 87 87 NNW 25 41 30.11 1020 10 16.0934 0 0
1:55 pm 13:55 Cloudy 33 0.5 28 -2.1 83 83 NNW 26 43 30.13 1020 10 16.0934 0 0
2:15 pm 14:15 Cloudy 33 0.5 29 -1.7 85 85 NNW 21 33 30.13 1020 10 16.0934 0 0
2:35 pm 14:35 Cloudy 33 0.4 29 -1.9 85 85 NW 29 46 30.13 1020 10 16.0934 0 0
2:55 pm 14:55 Cloudy 32 0 28 -2.5 83 83 NNW 28 44 30.14 1021 10 16.0934 0 0
3:15 pm 15:15 Cloudy 32 0 27 -2.6 83 83 NNW 28 44 30.15 1021 10 16.0934 0 0
3:35 pm 15:35 Cloudy 32 0.1 27 -2.7 82 82 NNW 23 37 30.15 1021 10 16.0934 0 0
3:55 pm 15:55 Cloudy 33 0.8 27 -2.6 78 78 NNW 24 39 30.15 1021 10 16.0934 0 0
4:15 pm 16:15 Cloudy 33 0.7 27 -2.9 77 77 NNW 24 39 30.15 1021 10 16.0934 0 0
4:35 pm 16:35 Cloudy 33 0.7 26 -3.2 75 75 NNW 26 43 30.15 1021 10 16.0934 0 0
4:55 pm 16:55 Cloudy 34 0.9 27 -3 75 75 NW 22 35 30.16 1021 10 16.0934 0 0
5:15 pm 17:15 Cloudy 33 0.7 26 -3.4 74 74 NNW 23 37 30.16 1021 10 16.0934 0 0
5:35 pm 17:35 Cloudy 33 0.7 26 -3.4 74 74 NW 28 44 30.18 1022 10 16.0934 0 0
5:55 pm 17:55 Cloudy 33 0.3 25 -3.8 74 74 NNW 28 44 30.18 1022 10 16.0934 0 0
6:15 pm 18:15 Cloudy 33 0.5 25 -4 72 72 NNW 25 41 30.18 1022 10 16.0934 0 0
6:35 pm 18:35 Cloudy 33 0.3 25 -3.9 74 74 NNW 26 43 30.2 1023 10 16.0934 0 0
6:55 pm 18:55 Cloudy 32 0 25 -4.1 74 74 NNW 24 39 30.21 1023 10 16.0934 0 0
7:15 pm 19:15 Cloudy 32 -0.1 24 -4.2 74 74 NW 28 44 30.22 1023 10 16.0934 0 0
7:35 pm 19:35 Cloudy 31 -0.5 24 -4.4 75 75 NNW 25 41 30.24 1024 10 16.0934 0 0
7:55 pm 19:55 Cloudy 31 -0.5 24 -4.2 76 76 NW 21 33 30.25 1024 10 16.0934 0 0
8:15 pm 20:15 Cloudy 31 -0.3 23 -4.9 71 71 NW 30 48 30.25 1024 10 16.0934 0 0
8:35 pm 20:35 Partly Cloudy 31 -0.6 23 -4.9 73 73 NNW 23 37 30.25 1024 10 16.0934 0 0
8:55 pm 20:55 Partly Cloudy 31 -0.6 23 -4.9 73 73 NW 23 37 30.26 1025 10 16.0934 0 0
9:15 pm 21:15 Partly Cloudy 31 -0.8 23 -5 74 74 NW 23 37 30.29 1026 10 16.0934 0 0
9:35 pm 21:35 Partly Cloudy 30 -1 23 -5 75 75 NW 18 30 30.29 1026 10 16.0934 0 0
9:55 pm 21:55 Mostly Cloudy 30 -1.1 23 -5.1 75 75 NW 17 28 30.29 1026 10 16.0934 0 0
10:15 pm 22:15 Partly Cloudy 29 -1.5 22 -5.3 76 76 NW 18 30 30.3 1026 10 16.0934 0 0
10:35 pm 22:35 Partly Cloudy 29 -1.5 22 -5.3 76 76 NW 16 26 30.31 1027 10 16.0934 0 0
10:55 pm 22:55 Mostly Cloudy 29 -1.5 23 -5.2 76 76 NW 15 24 30.31 1027 10 16.0934 0 0
11:15 pm 23:15 Cloudy 31 -0.8 22 -5.4 71 71 NW 21 33 30.31 1026 10 16.0934 0 0
11:35 pm 23:35 Cloudy 31 -0.6 22 -5.5 70 70 NW 23 37 30.3 1026 10 16.0934 0 0
11:55 pm 23:55 Cloudy 30 -1.1 22 -5.4 73 73 NW 21 33 30.31 1026 10 16.0934 0 0

Powered by AerisWeather